This demonstration page uses our WeatherBlox Daily Observations layout. Learn more.

38.88101, -77.10428

Hourly Observations for February 5, 2018

Temp ( °F °C ) Dew Point ( °F °C ) Humidity (%) Winds ( mph kmh ) Pressure ( in mb ) Visibility ( mi km ) Precip ( " mm )
12:52 am 00:52 Clear 34 1.1 33 0.6 97 97 WSW 5 7 29.81 1009 10 16.0934 0 0
1:52 am 01:52 Mostly Cloudy 34 1.1 32 0 92 92 SW 5 7 29.8 1009 7 11.26538 0 0
2:52 am 02:52 Mostly Cloudy 33 0.6 33 0.6 100 100 SW 5 7 29.82 1010 10 16.0934 0 0
3:52 am 03:52 Mostly Cloudy 36 2.2 33 0.6 89 89 W 5 7 29.83 1010 10 16.0934 0 0
4:52 am 04:52 Cloudy 34 1.1 33 0.6 97 97 S 3 6 29.85 1011 9 14.48406 0 0
5:52 am 05:52 Cloudy 38 3.3 33 0.6 83 83 NW 23 37 29.93 1014 10 16.0934 0 0
6:52 am 06:52 Mostly Clear 36 2.2 25 -3.9 64 64 NW 23 37 30.01 1016 10 16.0934 0 0
7:52 am 07:52 Mostly Sunny 33 0.6 22 -5.6 64 64 NW 16 26 30.1 1019 10 16.0934 0 0
8:52 am 08:52 Mostly Sunny 32 0 19 -7.2 59 59 NW 18 30 30.17 1022 10 16.0934 0 0
9:52 am 09:52 Mostly Sunny 32 0 17 -8.3 54 54 NNW 21 33 30.21 1023 10 16.0934 0 0
10:52 am 10:52 Mostly Sunny 33 0.6 16 -8.9 49 49 NNW 17 28 30.24 1024 10 16.0934 0 0
11:52 am 11:52 Mostly Sunny 34 1.1 15 -9.4 46 46 NW 16 26 30.24 1024 10 16.0934 0 0
12:52 pm 12:52 Mostly Sunny 35 1.7 13 -10.6 40 40 NNW 21 33 30.25 1024 10 16.0934 0 0
1:52 pm 13:52 Mostly Sunny 36 2.2 12 -11.1 37 37 WNW 10 17 30.22 1023 10 16.0934 0 0
2:52 pm 14:52 Sunny 36 2.2 13 -10.6 39 39 N 13 20 30.22 1023 10 16.0934 0 0
3:52 pm 15:52 Mostly Sunny 37 2.8 14 -10 39 39 NNE 3 6 30.24 1024 10 16.0934 0 0
4:52 pm 16:52 Mostly Sunny 36 2.2 13 -10.6 39 39 WNW 3 6 30.25 1025 10 16.0934 0 0
5:52 pm 17:52 Mostly Clear 33 0.6 13 -10.6 43 43 WNW 6 9 30.28 1026 10 16.0934 0 0
6:52 pm 18:52 Mostly Clear 33 0.6 13 -10.6 43 43 N 6 9 30.29 1026 10 16.0934 0 0
7:52 pm 19:52 Mostly Cloudy 31 -0.6 15 -9.4 52 52 N 6 9 30.31 1026 10 16.0934 0 0
8:52 pm 20:52 Mostly Cloudy 31 -0.6 18 -7.8 59 59 ESE 3 6 30.32 1027 10 16.0934 0 0
9:52 pm 21:52 Partly Cloudy 30 -1.1 17 -8.3 58 58 Calm 30.32 1027 10 16.0934 0 0
10:52 pm 22:52 Mostly Cloudy 29 -1.7 17 -8.3 61 61 S 3 6 30.3 1026 10 16.0934 0 0
11:52 pm 23:52 Mostly Cloudy 29 -1.7 15 -9.4 56 56 SE 3 6 30.28 1025 10 16.0934 0 0

Powered by AerisWeather